WAT913 LPPR-LPPT

Flight info

Callsign WAT913
Flight time 0h 40m
Altitude 33000
Route MANIK DCT ABRIL DCT XAMAX
Aircraft A306/H-SDE3FGHIRWY/LB1

Departure

Time 2026-05-05 20:39
Airport Francisco de Sá Carneiro Airport (LPPR)

Arrival

Time 2026-05-05 21:20
Airport Lisbon Humberto Delgado Airport (LPPT)
Time Latitude Longitude Altitude Speed Heading
2026-05-05 20:17 41.23925 -8.67327 243 ft 0 kts 124°
2026-05-05 20:27 41.23926 -8.67327 243 ft 0 kts 124°
2026-05-05 20:32 41.23937 -8.67349 243 ft 4 kts 124°
2026-05-05 20:32 41.23952 -8.67378 243 ft 4 kts 124°
2026-05-05 20:32 41.23967 -8.67406 243 ft 4 kts 143°
2026-05-05 20:33 41.23989 -8.67418 243 ft 4 kts 181°
2026-05-05 20:33 41.24011 -8.67417 243 ft 0 kts 184°
2026-05-05 20:36 41.23997 -8.67420 243 ft 4 kts 194°
2026-05-05 20:36 41.23956 -8.67452 243 ft 9 kts 221°
2026-05-05 20:36 41.23927 -8.67544 243 ft 12 kts 265°
2026-05-05 20:37 41.23915 -8.67638 238 ft 0 kts 255°
2026-05-05 20:37 41.23913 -8.67651 238 ft 0 kts 258°
2026-05-05 20:37 41.23909 -8.67681 238 ft 6 kts 260°
2026-05-05 20:38 41.23900 -8.67749 232 ft 9 kts 260°
2026-05-05 20:38 41.23886 -8.67841 230 ft 8 kts 259°
2026-05-05 20:38 41.23904 -8.67883 231 ft 6 kts 332°
2026-05-05 20:38 41.23996 -8.67912 227 ft 34 kts 348°
2026-05-05 20:39 41.24478 -8.68044 216 ft 105 kts 348°
2026-05-05 20:39 41.25386 -8.68275 282 ft 154 kts 349°
2026-05-05 20:39 41.26522 -8.68515 726 ft 176 kts 352°
2026-05-05 20:39 41.27761 -8.68825 1500 ft 184 kts 346°
2026-05-05 20:40 41.28986 -8.69269 2572 ft 180 kts 343°
2026-05-05 20:40 41.30231 -8.69746 3338 ft 196 kts 340°
2026-05-05 20:40 41.31410 -8.70817 3881 ft 216 kts 311°
2026-05-05 20:40 41.32040 -8.72734 4469 ft 243 kts 281°
2026-05-05 20:41 41.31923 -8.75054 5203 ft 260 kts 262°
2026-05-05 20:41 41.31498 -8.77428 6121 ft 265 kts 259°
2026-05-05 20:41 41.31028 -8.79815 7080 ft 269 kts 259°
2026-05-05 20:41 41.30546 -8.82235 8031 ft 272 kts 259°
2026-05-05 20:42 41.30016 -8.84643 8948 ft 280 kts 249°
2026-05-05 20:42 41.28942 -8.86840 9911 ft 286 kts 237°
2026-05-05 20:42 41.27560 -8.88812 10595 ft 303 kts 221°
2026-05-05 20:42 41.25579 -8.90040 10914 ft 331 kts 193°
2026-05-05 20:43 41.23207 -8.89940 11221 ft 355 kts 166°
2026-05-05 20:43 41.20849 -8.88738 11548 ft 373 kts 156°
2026-05-05 20:43 41.18427 -8.87299 11861 ft 390 kts 156°
2026-05-05 20:43 41.15899 -8.85855 12320 ft 400 kts 158°
2026-05-05 20:44 41.13302 -8.84433 12903 ft 407 kts 158°
2026-05-05 20:44 41.10660 -8.83023 13523 ft 413 kts 159°
2026-05-05 20:44 41.07970 -8.81609 14133 ft 418 kts 159°
2026-05-05 20:44 41.05252 -8.80190 14720 ft 422 kts 160°
2026-05-05 20:45 40.99739 -8.77332 15974 ft 428 kts 160°
2026-05-05 20:45 40.96951 -8.75891 16589 ft 432 kts 160°
2026-05-05 20:45 40.94131 -8.74435 17210 ft 435 kts 161°
2026-05-05 20:46 40.91294 -8.72972 17805 ft 439 kts 161°
2026-05-05 20:46 40.88440 -8.71502 18370 ft 443 kts 161°
2026-05-05 20:46 40.85566 -8.70023 18859 ft 446 kts 161°
2026-05-05 20:46 40.82661 -8.68529 19339 ft 449 kts 161°
2026-05-05 20:47 40.79741 -8.67030 19816 ft 452 kts 162°
2026-05-05 20:47 40.76797 -8.65519 20292 ft 455 kts 162°
2026-05-05 20:47 40.73879 -8.64022 20746 ft 458 kts 162°
2026-05-05 20:47 40.70890 -8.62529 21196 ft 459 kts 165°
2026-05-05 20:48 40.67801 -8.61504 21656 ft 457 kts 174°
2026-05-05 20:48 40.64646 -8.61010 22121 ft 457 kts 179°
2026-05-05 20:48 40.61469 -8.60631 22566 ft 460 kts 179°
2026-05-05 20:48 40.58281 -8.60260 22957 ft 453 kts 179°
2026-05-05 20:49 40.55227 -8.59890 23066 ft 430 kts 179°
2026-05-05 20:49 40.52230 -8.59533 23092 ft 438 kts 179°
2026-05-05 20:49 40.49152 -8.59171 23097 ft 450 kts 179°
2026-05-05 20:49 40.45994 -8.58794 23089 ft 459 kts 179°
2026-05-05 20:50 40.42798 -8.58409 23094 ft 462 kts 179°
2026-05-05 20:50 40.39627 -8.58024 23099 ft 462 kts 179°
2026-05-05 20:50 40.36387 -8.57631 23092 ft 462 kts 179°
2026-05-05 20:50 40.33226 -8.57248 23093 ft 462 kts 179°
2026-05-05 20:51 40.30028 -8.56861 23096 ft 461 kts 179°
2026-05-05 20:51 40.26824 -8.56475 23093 ft 461 kts 179°
2026-05-05 20:51 40.23633 -8.56090 23089 ft 461 kts 179°
2026-05-05 20:51 40.20442 -8.55706 23091 ft 461 kts 179°
2026-05-05 20:52 40.17250 -8.55322 23095 ft 461 kts 179°
2026-05-05 20:52 40.14059 -8.54938 23093 ft 460 kts 179°
2026-05-05 20:52 40.10871 -8.54556 23091 ft 460 kts 179°
2026-05-05 20:52 40.07684 -8.54173 23092 ft 460 kts 179°
2026-05-05 20:53 40.04502 -8.53792 23095 ft 460 kts 179°
2026-05-05 20:53 40.01306 -8.53462 23097 ft 459 kts 180°
2026-05-05 20:53 39.98121 -8.53193 23093 ft 459 kts 180°
2026-05-05 20:53 39.94938 -8.52933 23094 ft 458 kts 180°
2026-05-05 20:54 39.91753 -8.52671 23099 ft 459 kts 180°
2026-05-05 20:54 39.88567 -8.52409 23098 ft 458 kts 180°
2026-05-05 20:54 39.85392 -8.52145 23080 ft 450 kts 180°
2026-05-05 20:54 39.82381 -8.51889 23084 ft 429 kts 180°
2026-05-05 20:55 39.79471 -8.51645 23083 ft 410 kts 181°
2026-05-05 20:55 39.76701 -8.51679 23079 ft 387 kts 193°
2026-05-05 20:55 39.74227 -8.52670 23083 ft 361 kts 211°
2026-05-05 20:55 39.72096 -8.54213 23086 ft 344 kts 216°
2026-05-05 20:56 39.70071 -8.55821 23090 ft 339 kts 216°
2026-05-05 20:56 39.68065 -8.57428 23095 ft 339 kts 216°
2026-05-05 20:56 39.66052 -8.59034 23092 ft 340 kts 216°
2026-05-05 20:56 39.64026 -8.60640 23093 ft 340 kts 216°
2026-05-05 20:57 39.62002 -8.62237 23093 ft 340 kts 216°
2026-05-05 20:57 39.59975 -8.63834 23095 ft 341 kts 216°
2026-05-05 20:57 39.57948 -8.65426 23091 ft 341 kts 216°
2026-05-05 20:57 39.55923 -8.67016 23094 ft 341 kts 216°
2026-05-05 20:58 39.53895 -8.68606 23094 ft 341 kts 216°
2026-05-05 20:58 39.51867 -8.70195 23091 ft 340 kts 216°
2026-05-05 20:58 39.49837 -8.71785 23096 ft 340 kts 216°
2026-05-05 20:58 39.47834 -8.73351 23094 ft 340 kts 215°
2026-05-05 20:59 39.45807 -8.74936 23093 ft 340 kts 215°
2026-05-05 20:59 39.43781 -8.76520 23092 ft 341 kts 215°
2026-05-05 20:59 39.41752 -8.78104 23095 ft 340 kts 215°
2026-05-05 20:59 39.39813 -8.79831 23091 ft 336 kts 225°
2026-05-05 21:00 39.38181 -8.81966 23096 ft 334 kts 231°
2026-05-05 21:00 39.36641 -8.84223 23103 ft 339 kts 232°
2026-05-05 21:00 39.35053 -8.86581 23105 ft 355 kts 231°
2026-05-05 21:00 39.33208 -8.88821 23105 ft 375 kts 221°
2026-05-05 21:01 39.30944 -8.90654 23107 ft 393 kts 212°
2026-05-05 21:01 39.28468 -8.92302 23103 ft 407 kts 210°
2026-05-05 21:01 39.25893 -8.93939 23104 ft 419 kts 209°
2026-05-05 21:01 39.23238 -8.95606 23100 ft 429 kts 209°
2026-05-05 21:02 39.20534 -8.97301 23101 ft 434 kts 209°
2026-05-05 21:02 39.17812 -8.99002 23092 ft 436 kts 209°
2026-05-05 21:02 39.15095 -9.00698 22647 ft 430 kts 209°
2026-05-05 21:02 39.12431 -9.02358 22116 ft 421 kts 209°
2026-05-05 21:03 39.09806 -9.03995 21445 ft 417 kts 209°
2026-05-05 21:03 39.07205 -9.05620 20817 ft 413 kts 209°
2026-05-05 21:03 39.04628 -9.07227 20198 ft 409 kts 209°
2026-05-05 21:03 39.02079 -9.08817 19585 ft 407 kts 209°
2026-05-05 21:04 38.99542 -9.10398 18964 ft 405 kts 209°
2026-05-05 21:04 38.97037 -9.11956 18331 ft 404 kts 209°
2026-05-05 21:04 38.94505 -9.13531 17618 ft 404 kts 209°
2026-05-05 21:04 38.91980 -9.15099 16953 ft 402 kts 209°
2026-05-05 21:05 38.89471 -9.16655 16297 ft 399 kts 208°
2026-05-05 21:05 38.86977 -9.18202 15652 ft 396 kts 208°
2026-05-05 21:05 38.84500 -9.19737 14992 ft 394 kts 208°
2026-05-05 21:05 38.82033 -9.21264 14339 ft 392 kts 208°
2026-05-05 21:06 38.79585 -9.22778 13642 ft 390 kts 208°
2026-05-05 21:06 38.77962 -9.23782 13168 ft 388 kts 208°
2026-05-05 21:06 38.74735 -9.25775 12306 ft 383 kts 208°
2026-05-05 21:06 38.72346 -9.27249 11652 ft 379 kts 208°
2026-05-05 21:07 38.69987 -9.28704 11103 ft 373 kts 208°
2026-05-05 21:07 38.67704 -9.30110 10998 ft 354 kts 208°
2026-05-05 21:07 38.65534 -9.31444 10896 ft 338 kts 208°
2026-05-05 21:07 38.63464 -9.32718 10784 ft 322 kts 208°
2026-05-05 21:08 38.62145 -9.33529 10729 ft 313 kts 208°
2026-05-05 21:08 38.59608 -9.35087 10550 ft 298 kts 209°
2026-05-05 21:08 38.57771 -9.36217 10420 ft 288 kts 209°
2026-05-05 21:08 38.55970 -9.37325 10031 ft 290 kts 209°
2026-05-05 21:09 38.54138 -9.38454 9525 ft 294 kts 208°
2026-05-05 21:09 38.52917 -9.39204 9260 ft 292 kts 208°
2026-05-05 21:09 38.51120 -9.40304 9166 ft 280 kts 208°
2026-05-05 21:09 38.49391 -9.41333 9073 ft 269 kts 204°
2026-05-05 21:10 38.47609 -9.41897 8979 ft 261 kts 186°
2026-05-05 21:10 38.45838 -9.41671 8889 ft 253 kts 162°
2026-05-05 21:10 38.44358 -9.40581 8783 ft 242 kts 135°
2026-05-05 21:10 38.43405 -9.38853 8431 ft 240 kts 108°
2026-05-05 21:11 38.43137 -9.36768 7993 ft 239 kts 81°
2026-05-05 21:11 38.43590 -9.34775 7658 ft 232 kts 56°
2026-05-05 21:11 38.44689 -9.33354 7330 ft 224 kts 29°
2026-05-05 21:11 38.46030 -9.32386 7087 ft 220 kts 25°
2026-05-05 21:12 38.47374 -9.31497 6829 ft 215 kts 24°
2026-05-05 21:12 38.48709 -9.30625 6477 ft 216 kts 24°
2026-05-05 21:12 38.50025 -9.29764 6131 ft 215 kts 25°
2026-05-05 21:12 38.51350 -9.28893 5801 ft 213 kts 25°
2026-05-05 21:13 38.52667 -9.28023 5458 ft 212 kts 25°
2026-05-05 21:13 38.53965 -9.27145 5121 ft 212 kts 29°
2026-05-05 21:13 38.55167 -9.26056 4791 ft 211 kts 31°
2026-05-05 21:13 38.56443 -9.25165 4476 ft 207 kts 22°
2026-05-05 21:14 38.57770 -9.24453 4169 ft 206 kts 20°
2026-05-05 21:14 38.59093 -9.23760 3871 ft 205 kts 20°
2026-05-05 21:14 38.60399 -9.23071 3577 ft 202 kts 20°
2026-05-05 21:14 38.61666 -9.22397 3254 ft 191 kts 20°
2026-05-05 21:15 38.62851 -9.21763 2964 ft 178 kts 20°
2026-05-05 21:15 38.63958 -9.21170 2734 ft 166 kts 19°
2026-05-05 21:15 38.64976 -9.20628 2596 ft 150 kts 19°
2026-05-05 21:15 38.65872 -9.20143 2496 ft 133 kts 19°
2026-05-05 21:16 38.66668 -9.19717 2427 ft 118 kts 18°
2026-05-05 21:16 38.67424 -9.19315 2372 ft 120 kts 18°
2026-05-05 21:16 38.68202 -9.18899 2210 ft 122 kts 18°
2026-05-05 21:16 38.68983 -9.18485 2041 ft 121 kts 18°
2026-05-05 21:17 38.69762 -9.18064 1875 ft 121 kts 19°
2026-05-05 21:17 38.70523 -9.17624 1664 ft 119 kts 19°
2026-05-05 21:17 38.71276 -9.17201 1416 ft 118 kts 19°
2026-05-05 21:17 38.72065 -9.16813 1324 ft 125 kts 17°
2026-05-05 21:18 38.72873 -9.16345 1293 ft 126 kts 17°
2026-05-05 21:18 38.73695 -9.15943 1065 ft 127 kts 18°
2026-05-05 21:18 38.74529 -9.15508 878 ft 132 kts 19°
2026-05-05 21:18 38.75381 -9.15071 681 ft 131 kts 18°
2026-05-05 21:19 38.76218 -9.14596 487 ft 131 kts 18°
2026-05-05 21:19 38.77064 -9.14158 372 ft 130 kts 18°
2026-05-05 21:19 38.77797 -9.13774 366 ft 93 kts 22°
2026-05-05 21:19 38.78253 -9.13502 362 ft 51 kts 34°
2026-05-05 21:20 38.78372 -9.13291 361 ft 16 kts 112°
2026-05-05 21:20 38.78285 -9.13283 362 ft 13 kts 200°
2026-05-05 21:20 38.78205 -9.13325 360 ft 12 kts 202°
2026-05-05 21:20 38.78128 -9.13366 367 ft 11 kts 202°
2026-05-05 21:21 38.78076 -9.13394 365 ft 6 kts 202°
2026-05-05 21:21 38.78043 -9.13411 364 ft 3 kts 202°
2026-05-05 21:21 38.78023 -9.13422 362 ft 6 kts 202°
2026-05-05 21:21 38.77950 -9.13460 362 ft 15 kts 202°
2026-05-05 21:22 38.77828 -9.13527 367 ft 22 kts 203°
2026-05-05 21:22 38.77702 -9.13593 362 ft 17 kts 195°
2026-05-05 21:22 38.77590 -9.13582 359 ft 16 kts 167°
2026-05-05 21:22 38.77485 -9.13551 359 ft 15 kts 167°
2026-05-05 21:23 38.77386 -9.13525 362 ft 13 kts 168°
2026-05-05 21:23 38.77329 -9.13514 357 ft 6 kts 183°
2026-05-05 21:23 38.77293 -9.13554 365 ft 7 kts 241°
2026-05-05 21:23 38.77268 -9.13578 364 ft 4 kts 195°
2026-05-05 21:24 38.77235 -9.13576 359 ft 6 kts 168°
2026-05-05 21:24 38.77191 -9.13579 365 ft 6 kts 194°
2026-05-05 21:24 38.77165 -9.13590 364 ft 2 kts 200°
2026-05-05 21:24 38.77157 -9.13594 360 ft 1 kts 201°
2026-05-05 21:25 38.77152 -9.13596 359 ft 1 kts 201°
2026-05-05 21:25 38.77148 -9.13598 358 ft 0 kts 201°
2026-05-05 21:25 38.77141 -9.13602 359 ft 1 kts 202°
2026-05-05 21:26 38.77140 -9.13603 358 ft 0 kts 202°
2026-05-05 21:29 38.77143 -9.13601 -39 ft 1 kts 204°
2026-05-05 21:29 38.76937 -9.13848 -3245 ft 2 kts 256°
2026-05-05 21:29 38.76946 -9.13851 -3215 ft 0 kts 223°
2026-05-05 21:30 38.76946 -9.13850 -3215 ft 0 kts 223°
2026-05-05 21:30 38.76945 -9.13850 -3219 ft 0 kts 224°